This is the latest recevied weather packets stored in our database for station/object G0TRT-13. If no packets are shown the sender has not sent any weather packets the latest 1 day(s).
| Time | Temp. | Humidity | Pressure | Rain* | Wind** | Luminosity | Snow |
|---|---|---|---|---|---|---|---|
| 1778095144 | 11.67° C | 60% | 1013.7 hPa | 0 mm | - | - | - |
| 1778094845 | 11.67° C | 59% | 1013.7 hPa | 0 mm | - | - | - |
| 1778094545 | 11.67° C | 59% | 1013.6 hPa | 0 mm | - | - | - |
| 1778094246 | 12.22° C | 58% | 1013.6 hPa | 0 mm | - | - | - |
| 1778093643 | 12.22° C | 59% | 1013.6 hPa | 0 mm | - | - | - |
| 1778092445 | 12.22° C | 57% | 1013.6 hPa | 0 mm | - | - | - |
| 1778091543 | 12.78° C | 56% | 1013.4 hPa | 0 mm | - | - | - |
| 1778090643 | 12.78° C | 55% | 1013.3 hPa | 0 mm | - | - | - |
| 1778090342 | 12.78° C | 55% | 1013.1 hPa | 0 mm | - | - | - |
| 1778088232 | 13.33° C | 55% | 1013 hPa | 0 mm | - | - | - |
| 1778087926 | 13.33° C | 55% | 1013 hPa | 0 mm | - | - | - |
| 1778086716 | 13.89° C | 52% | 1012.9 hPa | 0 mm | - | - | - |
| 1778086414 | 13.89° C | 53% | 1013 hPa | 0 mm | - | - | - |
| 1778086111 | 13.89° C | 52% | 1013 hPa | 0 mm | - | - | - |
| 1778084911 | 14.44° C | 51% | 1012.9 hPa | 0 mm | - | - | - |
| 1778084311 | 14.44° C | 52% | 1012.9 hPa | 0 mm | - | - | - |
| 1778084012 | 13.89° C | 54% | 1013 hPa | 0 mm | - | - | - |
| 1778083711 | 13.89° C | 53% | 1012.9 hPa | 0 mm | - | - | - |
| 1778083412 | 13.89° C | 52% | 1013 hPa | 0 mm | - | - | - |
| 1778083115 | 14.44° C | 52% | 1012.9 hPa | 0 mm | - | - | - |
| 1778081306 | 15° C | 50% | 1013 hPa | 0 mm | - | - | - |
| 1778081006 | 15.56° C | 51% | 1013 hPa | 0 mm | - | - | - |
| 1778080402 | 15.56° C | 51% | 1013.1 hPa | 0 mm | - | - | - |
| 1778080102 | 15.56° C | 50% | 1013.1 hPa | 0 mm | - | - | - |
| 1778079502 | 16.11° C | 50% | 1013.2 hPa | 0 mm | - | - | - |
* Rain latest hour (hover to see other rain measurements)
** Current wind speed in m/s (hover to see current wind gust speed)